Regional Weather Roundup
Issued by NWS Cleveland, OH

Home | Current Version | Previous Version | Text Only | Print | Product List | Glossary On
Versions: 1 2 3 4 5 6 7 8 9 10 11 12 13 14 15 16 17 18 19 20 21 22 23 24 25 26 27 28 29 30 31 32 33 34 35 36 37 38 39 40 41 42 43 44 45 46 47 48 49 50
000
ASUS41 KCLE 271300
RWRCLE
OHIO REGIONAL WEATHER ROUNDUP
NATIONAL WEATHER SERVICE WILMINGTON, OH
900 AM EDT SAT MAY 27 2017

NOTE: "FAIR" INDICATES FEW OR NO CLOUDS BELOW 12,000 FEET WITH NO
SIGNIFICANT WEATHER AND/OR OBSTRUCTIONS TO VISIBILITY.

OHZ001>008-015>018-024>027-034-035-043-044-271400-
   NORTHWEST OHIO

CITY           SKY/WX    TMP DP  RH WIND       PRES   REMARKS
DEFIANCE       CLOUDY    62  59  90 E6        29.88R
FINDLAY        CLOUDY    64  59  83 E8        29.87R
TOLEDO EXPRESS CLOUDY    64  62  93 E6        29.88R
TOLEDO EXEC    FAIR      65  61  87 E6        29.89R
LIMA           CLOUDY    63  62  97 NE5       29.87R
$$

OHZ009>014-019>023-028>033-038-089-271400-
   NORTHEAST OHIO

CITY           SKY/WX    TMP DP  RH WIND       PRES   REMARKS
CLE-HOPKINS    PTSUNNY   63  57  81 E8        29.92R
CLE-LAKEFRONT  CLOUDY    64  56  75 N3        29.89R
CUY CO. ARPT   PTSUNNY   63  59  88 SE5       29.91R
LORAIN-ELYRIA  CLOUDY    62  55  77 E7        29.90R
ASHTABULA      FAIR      60  56  86 CALM      29.93R
AKRON-CANTON   CLOUDY    60  55  83 SE8       29.89F
WOOSTER        NOT AVBL
MANSFIELD      FOG       59  59 100 E3        29.89R VSB 1
YOUNGSTOWN     CLOUDY    57  54  89 E3        29.92R
$$

OHZ042-051>053-060>062-070>072-077>081-271400-
  SOUTHWEST OHIO

CITY           SKY/WX    TMP DP  RH WIND       PRES   REMARKS
CINC-COVINGTON PTSUNNY   72  67  84 W7        29.88R
CINC-LUNKEN    PTSUNNY   73  69  87 W9        29.88R
HAMILTON       PTSUNNY   73  68  84 W8        29.88R
DAYTON         NOT AVBL
WRIGHT-PAT AFB NOT AVBL
DAYTON GENERAL CLOUDY    70  65  84 SW7       29.87R
WILMINGTON     PTSUNNY   71  67  87 W9        29.87S
$$

OHZ036-037-039>041-045>050-054>059-063>069-073>076-082>088-271400-
  CENTRAL AND SOUTHEAST OHIO

CITY           SKY/WX    TMP DP  RH WIND       PRES   REMARKS
COLUMBUS       PTSUNNY   67  64  90 E3        29.86S
OSU AIRPORT    CLOUDY    66  64  93 E3        29.86S
BOLTON FIELD   CLOUDY    64  63  94 CALM      29.87S
RICKENBACK AFB NOT AVBL
NEWARK         CLOUDY    65  61  87 CALM      29.87R
MARION         CLOUDY    63  60  90 SE3       29.88S
LANCASTER      PTSUNNY   68  62  81 SE3       29.87R
ZANESVILLE     CLOUDY    64  60  87 SE6       29.87R
NEW PHILLY     CLOUDY    59  58  96 E5        29.88F
$$




USA.gov is the U.S. government's official web portal to all federal, state and local government web resources and services.